Regional Weather Roundup
Issued by NWS

Home | Current Version | Previous Version | Graphics & Text | Print | Product List | Glossary On
Versions: 1 2 3 4 5 6 7 8 9 10 11 12 13 14 15 16 17 18 19 20 21 22 23 24 25 26 27 28 29 30 31 32 33 34 35 36 37 38 39 40 41 42 43 44 45 46 47 48 49 50
000
ASUS43 KLMK 271902
RWRKY
KENTUCKY REGIONAL WEATHER ROUNDUP
NATIONAL WEATHER SERVICE LOUISVILLE KY
200 PM EST MON FEB 27 2017

NOTE "FAIR" INDICATES FEW OR NO CLOUDS BELOW 12,000 FEET
WITH NO SIGNIFICANT WEATHER AND/OR OBSTRUCTIONS TO VISIBILITY.

KYZ001>023-026-027-061>063-070>075-272000-
WESTERN AND SOUTH CENTRAL KENTUCKY

CITY           SKY/WX    TMP DP  RH WIND       PRES   REMARKS
PADUCAH        PTSUNNY   61  45  55 VRB3      30.11F
HENDERSON      CLOUDY    57  45  62 SW5       30.14F
OWENSBORO      CLOUDY    58  45  62 S7        30.15F
HOPKINSVILLE   SUNNY     61  43  50 SW9G17    30.13F
BOWLING GREEN  MOSUNNY   61  39  44 S14       30.17F
GLASGOW        NOT AVBL
$$

KYZ024-025-028>034-038-045-046-053-272000-
NORTH CENTRAL KENTUCKY

CITY           SKY/WX    TMP DP  RH WIND       PRES   REMARKS
LOUISVILLE/SDF CLOUDY    51  44  77 SE9       30.19F
LOUISVILLE/LOU CLOUDY    51  43  74 SE6       30.20F
FORT KNOX      SUNNY     54  43  66 SE7       30.15F
$$

KYZ035>037-039>044-047>052-055>060-089>105-272000-
NORTHEAST KENTUCKY

CITY           SKY/WX    TMP DP  RH WIND       PRES   REMARKS
LEXINGTON      CLOUDY    50  38  63 SE10      30.21F
COVINGTON      LGT RAIN  45  44  97 S3        30.21F
FRANKFORT      CLOUDY    49  40  71 E9        30.20F
$$

KYZ054-064>069-076>088-106>120-272000-
SOUTHEAST KENTUCKY

CITY           SKY/WX    TMP DP  RH WIND       PRES   REMARKS
JACKSON        CLOUDY    54  27  35 CALM      30.22F
LONDON         CLOUDY    54  30  40 S16G24    30.22F
SOMERSET       CLOUDY    54  34  47 SW15G28   30.24S
MIDDLESBORO    CLOUDY    52  29  42 S9G16     30.26F
MONTICELLO     CLOUDY    55  40  56 S10G21    30.23F
$$





USA.gov is the U.S. government's official web portal to all federal, state and local government web resources and services.